Tracking 31027 objects as of 19-Jul-2025
HD Live streaming from Space Station
objects crossing your sky now

STARLINK-3653

Track STARLINK-3653 now!
10-day predictions
STARLINK-3653 is classified as:


NORAD ID: 52000
Int'l Code: 2022-025AW
Perigee: 546.1 km
Apogee: 547.7 km
Inclination: 53.2 °
Period: 95.4 minutes
Semi major axis: 6917 km
RCS: Unknown
Launch date: March 9, 2022
Source: United States (US)
Launch site: AIR FORCE EASTERN TEST RANGE (AFETR)
Your satellite tracking list
ST5-A
Track 1 satellite(s)




NASA's NSSDC Master Catalog

Two Line Element Set (TLE):
1 52000U 22025AW  25198.46490573 -.00000460  00000-0 -10815-4 0  9992
2 52000  53.2184 354.9977 0001174  88.3327 271.7800 15.08835974186943
Source of the keplerian elements: AFSPC